Regional Weather Roundup
Issued by NWS Memphis, TN

Home | Current Version | Previous Version | Text Only | Print | Product List | Glossary On
Versions: 1 2 3 4 5 6 7 8 9 10 11 12 13 14 15 16 17 18 19 20 21 22 23 24 25 26 27 28 29 30 31 32 33 34 35 36 37 38 39 40 41 42 43 44 45 46 47 48 49 50
000
ASUS44 KMEG 230310
RWRMEG
MEMPHIS CWA HOURLY WEATHER ROUNDUP
NATIONAL WEATHER SERVICE MEMPHIS TN
1000 PM CDT THU JUN 22 2017

...WEST TENNESSEE...

CITY           SKY/WX    TMP DP  RH WIND       PRES   REMARKS
MEMPHIS INTL   MOCLDY    79  76  90 SE15      29.76R
NWS MEMPHIS      N/A     77 N/A N/A MISG        N/A
JACKSON        CLOUDY    78  76  93 SE5       29.81R
COVINGTON      CLOUDY    77  75  94 SE10      29.78R
SOMERVILLE     PTCLDY    77  75  94 CALM      29.79R
BOLIVAR        MOCLDY    77  75  94 SE9G22    29.81R FOG
LEXINGTON      CLOUDY    77  73  88 VRB5      29.84R
SELMER         CLOUDY    77  73  88 S9        29.84R
SAVANNAH       CLOUDY    79  73  83 S10G18    29.84R
UNION CITY     CLOUDY    77  75  94 S8        29.79S FOG
PARIS          CLOUDY    77  75  94 S7        29.82R
HUNTINGDON     CLOUDY    77  75  94 S6        29.82R


...EASTERN ARKANSAS...

CITY           SKY/WX    TMP DP  RH WIND       PRES   REMARKS
JONESBORO      LGT RAIN  77  76  96 E7        29.74R
WEST MEMPHIS   CLOUDY    79  77  94 SE16      29.73R
BATESVILLE     CLOUDY    75  73  94 E12       29.71R
WALNUT RIDGE   MOCLDY    77  72  83 SE7       29.73S
BLYTHEVILLE    CLOUDY    78  77  96 SE8       29.77R
SEARCY         CLOUDY    77  77 100 SE9       29.71R
STUTTGART      CLOUDY   N/A N/A N/A SE16      29.67S
PINE BLUFF     LGT RAIN  78  75  90 SE13      29.65R
MONTICELLO     CLOUDY    78  74  87 SE12G20   29.66R


...NORTH MISSISSIPPI...

CITY           SKY/WX    TMP DP  RH WIND       PRES   REMARKS
TUPELO         CLOUDY    80  73  79 SE9       29.83R
OXFORD         PTCLDY    75  73  94 SE9       29.82R
BATESVILLE     LGT RAIN  78  74  86 SE8       29.77R
TUNICA           N/A     77  73  88 SE13      29.74R
CLARKSDALE       N/A     81  81 100 SE14      29.73R HX  91
CORINTH        DRIZZLE   77  73  88 S7        29.84R
GREENWOOD      CLOUDY    79  72  79 S15G28    29.76R
COLUMBUS       PTCLDY    79  78  98 S13G20    29.84R
STARKVILLE     PTCLDY    77  73  88 SE12      29.84R
GOLDEN TRIANGL CLOUDY    79  72  78 SE15G21   29.80R


...SOUTHEAST MISSOURI...

CITY           SKY/WX    TMP DP  RH WIND       PRES   REMARKS
KENNETT        CLOUDY    79  75  89 SE13      29.74S
MALDEN         CLOUDY    79  73  83 SE14      29.77R
WEST PLAINS    CLOUDY    75  72  90 SE3       29.77S
POPLAR BLUFF   CLOUDY    76  75  97 CALM      29.77R
CAPE GIRARDEAU LGT RAIN  79  74  84 SE9       29.77R


...NORTHWEST ALABAMA...

CITY           SKY/WX    TMP DP  RH WIND       PRES   REMARKS
MUSCLE SHOALS  CLOUDY    79  72  79 S13       29.89R


...MIDDLE TENNESSEE...

CITY           SKY/WX    TMP DP  RH WIND       PRES   REMARKS
NASHVILLE      MOCLDY    76  73  91 S10       29.89S
CLARKSVILLE    CLOUDY    77  72  84 S7        29.84S
COLUMBIA       CLOUDY    77  75  94 S8G14     29.87R


...WESTERN KENTUCKY...

CITY           SKY/WX    TMP DP  RH WIND       PRES   REMARKS
PADUCAH        CLOUDY    81  73  76 S7        29.79R
FORT CAMPBELL  CLOUDY    77  73  88 S9        29.84R


...CENTRAL ARKANSAS...

CITY           SKY/WX    TMP DP  RH WIND       PRES   REMARKS
LITTLE ROCK    LGT RAIN  76  76 100 E7        29.66R


SKY/WX REPORTED AS FAIR MEANS FEW OR NO CLOUDS BELOW
12 THOUSAND FEET.




USA.gov is the U.S. government's official web portal to all federal, state and local government web resources and services.